Regional Weather Roundup
Issued by NWS Little Rock, AR

Home | Current Version | Previous Version | Graphics & Text | Print | Product List | Glossary On
Versions: 1 2 3 4 5 6 7 8 9 10 11 12 13 14 15 16 17 18 19 20 21 22 23 24 25 26 27 28 29 30 31 32 33 34 35 36 37 38 39 40 41 42 43 44 45 46 47 48 49 50
000
ASUS44 KLZK 280305
RWRLZK

WEATHER ROUNDUP FOR ARKANSAS
NATIONAL WEATHER SERVICE LITTLE ROCK AR
1000 PM CDT FRI MAR 27 2015

NOTE: "FAIR" INDICATES FEW OR NO CLOUDS BELOW 12,000 FEET WITH NO
SIGNIFICANT WEATHER AND/OR OBSTRUCTIONS TO VISIBILITY.

ARZ001-003-010-029-280400-
NORTHWEST ARKANSAS

CITY           SKY/WX    TMP DP  RH WIND       PRES   REMARKS
FAYETTEVILLE   CLOUDY    44  28  53 NW5       30.18R
FORT SMITH     CLOUDY    50  26  39 N6        30.17R
HARRISON       CLOUDY    42  26  53 N3        30.17R
BENTONVILLE    CLOUDY    45  25  45 CALM      30.16F
ROGERS         CLOUDY    44  24  45 CALM      30.17S
SILOAM SPGS    CLOUDY    45  25  45 N3        30.18S
HIGHFILL       CLOUDY    45  27  49 NW3       30.16S
$$

ARZ004-005-016-280400-
NORTH CENTRAL ARKANSAS

CITY           SKY/WX    TMP DP  RH WIND       PRES   REMARKS
BATESVILLE     PTCLDY    39  27  60 CALM      30.18R
FLIPPIN        MOCLDY    43  25  49 CALM      30.17R
MTN HOME       CLOUDY    41  24  51 CALM      30.17R
$$

ARZ040-041-280400-
WEST CENTRAL ARKANSAS

CITY           SKY/WX    TMP DP  RH WIND       PRES   REMARKS
MENA           MOCLDY    45  32  61 W5        30.17R
MOUNT IDA      CLOUDY    44  33  65 CALM      30.13R
$$

ARZ009-017-025-026-028-280400-
NORTHEAST ARKANSAS

CITY           SKY/WX    TMP DP  RH WIND       PRES   REMARKS
CORNING          N/A     39  32  75 E5        30.20R
JONESBORO      MOCLDY    37  33  85 E6        30.19R
NEWPORT        PTCLDY    43  29  58 CALM      30.20R
BLYTHEVILLE    CLEAR     35  28  75 NE6       30.20R WCI  30
$$

ARZ022-023-033-042-044-280400-
CENTRAL ARKANSAS

CITY           SKY/WX    TMP DP  RH WIND       PRES   REMARKS
LITTLE ROCK    MOCLDY    47  29  49 NE3       30.18R
N LITTLE ROCK  MOCLDY    45  31  57 NE7       30.18R
JACKSONVILLE   MOCLDY    41  35  80 NE1       30.17R
SEARCY         MOCLDY    43  28  55 NE3       30.20R
HOT SPRINGS    MOCLDY    45  34  65 CALM      30.16R
RUSSELLVILLE   CLOUDY    44  35  70 CALM      30.17R
CLINTON        MOCLDY    43  34  70 CALM      30.19R
$$

ARZ036-280400-
EAST ARKANSAS

CITY           SKY/WX    TMP DP  RH WIND       PRES   REMARKS
WEST MEMPHIS   CLEAR     39  31  72 NE7       30.17S
$$

ARZ050-053-066-070-073-280400-
SOUTHWEST ARKANSAS

CITY           SKY/WX    TMP DP  RH WIND       PRES   REMARKS
ARKADELPHIA    FAIR      46  43  90 CALM      30.17R
CAMDEN         CLEAR     45  37  76 CALM      30.17R
TEXARKANA      PTCLDY    49  35  58 N3        30.16R
EL DORADO      PTCLDY    50  37  61 NE6       30.16R
DE QUEEN       MOCLDY    44  39  82 CALM      30.15S
$$

ARZ056-057-069-280400-
SOUTHEAST ARKANSAS

CITY           SKY/WX    TMP DP  RH WIND       PRES   REMARKS
PINE BLUFF     PTCLDY    47  35  63 CALM      30.17R
STUTTGART      MOCLDY    45  34  65 E6        30.17S
MONTICELLO     PTCLDY    43  38  82 CALM      30.16R

$$





USA.gov is the U.S. government's official web portal to all federal, state and local government web resources and services.